| time (UTC) | temp C | wind direction | speed KPH | gust KPH | rain 1hr cm | rain 24hr cm | rain mn cm | humidity % | barometer mb |
| 20260831234317 | 21 | 188 | 0.0 | 0.0 | 0.00 | 0.00 | 0.03 | 91 | 1017.6 |
| 20260831233826 | 21 | 188 | 0.0 | 0.0 | 0.00 | 0.00 | 0.03 | 91 | 1017.6 |
| 20260831233334 | 21 | 188 | 0.0 | 0.0 | 0.00 | 0.00 | 0.03 | 91 | 1017.5 |
| 20260831232829 | 21 | 188 | 0.0 | 0.0 | 0.00 | 0.00 | 0.03 | 91 | 1017.6 |
| 20260831232338 | 21 | 188 | 0.0 | 0.0 | 0.00 | 0.00 | 0.03 | 91 | 1017.6 |
| 20260831231817 | 21 | 188 | 0.0 | 0.0 | 0.00 | 0.00 | 0.03 | 91 | 1017.6 |
| 20260831231325 | 21 | 188 | 0.0 | 0.0 | 0.00 | 0.00 | 0.03 | 90 | 1017.6 |
| 20260831230838 | 21 | 188 | 0.0 | 0.0 | 0.00 | 0.00 | 0.03 | 90 | 1017.6 |
| 20260831230325 | 21 | 188 | 0.0 | 0.0 | 0.00 | 0.00 | 0.03 | 90 | 1017.7 |
| 20260831225831 | 21 | 188 | 0.0 | 0.0 | 0.00 | 0.00 | 0.03 | 90 | 1017.7 |
| 20260831225319 | 21 | 187 | 0.0 | 0.0 | 0.00 | 0.00 | 0.03 | 90 | 1017.7 |
| 20260831224833 | 21 | 188 | 0.0 | 0.0 | 0.00 | 0.00 | 0.03 | 90 | 1017.9 |
| 20260831224344 | 21 | 188 | 0.0 | 0.0 | 0.00 | 0.00 | 0.03 | 90 | 1017.8 |
| 20260831223831 | 21 | 188 | 0.0 | 0.0 | 0.00 | 0.00 | 0.03 | 90 | 1017.7 |
| 20260831223331 | 21 | 188 | 0.0 | 0.0 | 0.00 | 0.00 | 0.03 | 90 | 1017.8 |
| 20260831222839 | 21 | 187 | 0.0 | 0.0 | 0.00 | 0.00 | 0.03 | 89 | 1017.8 |
| 20260831222327 | 21 | 189 | 0.0 | 0.0 | 0.00 | 0.00 | 0.03 | 89 | 1017.9 |
| 20260831221816 | 21 | 184 | 0.0 | 0.0 | 0.00 | 0.00 | 0.03 | 89 | 1017.9 |
| 20260831221326 | 21 | 181 | 0.0 | 0.0 | 0.00 | 0.00 | 0.03 | 89 | 1018.0 |
| 20260831220828 | 21 | 180 | 0.0 | 0.0 | 0.00 | 0.00 | 0.03 | 88 | 1018.0 |
| 20260831220318 | 21 | 179 | 0.0 | 0.0 | 0.00 | 0.00 | 0.03 | 88 | 1018.0 |
| 20260831215834 | 21 | 168 | 0.0 | 0.0 | 0.00 | 0.00 | 0.03 | 89 | 1017.9 |
| 20260831215316 | 21 | 168 | 0.0 | 0.0 | 0.00 | 0.00 | 0.03 | 88 | 1018.0 |
| 20260831214825 | 21 | 196 | 0.0 | 0.0 | 0.00 | 0.00 | 0.03 | 88 | 1018.0 |
| 20260831214333 | 21 | 190 | 0.0 | 0.0 | 0.00 | 0.00 | 0.03 | 88 | 1017.9 |
| 20260831213825 | 21 | 194 | 0.0 | 0.0 | 0.00 | 0.00 | 0.03 | 87 | 1018.0 |
| 20260831213326 | 21 | 208 | 0.0 | 0.0 | 0.00 | 0.00 | 0.03 | 87 | 1018.0 |
| 20260831212821 | 21 | 188 | 0.0 | 0.0 | 0.00 | 0.00 | 0.03 | 87 | 1018.0 |
| 20260831212331 | 21 | 217 | 0.0 | 0.0 | 0.00 | 0.00 | 0.03 | 87 | 1018.0 |
| 20260831211841 | 21 | 203 | 0.0 | 0.0 | 0.00 | 0.00 | 0.03 | 88 | 1018.1 |
| 20260831211320 | 21 | 203 | 0.0 | 0.0 | 0.00 | 0.00 | 0.03 | 87 | 1018.1 |
| 20260831210831 | 21 | 203 | 0.0 | 0.0 | 0.00 | 0.00 | 0.03 | 88 | 1018.1 |
| 20260831210318 | 21 | 203 | 0.0 | 0.0 | 0.00 | 0.00 | 0.03 | 89 | 1018.1 |
| 20260831205818 | 22 | 215 | 0.0 | 0.0 | 0.00 | 0.00 | 0.03 | 90 | 1018.1 |
| 20260831205329 | 21 | 211 | 0.0 | 0.0 | 0.00 | 0.00 | 0.03 | 89 | 1018.2 |
| 20260831204822 | 21 | 211 | 0.0 | 0.0 | 0.00 | 0.00 | 0.03 | 88 | 1018.1 |
| 20260831204329 | 22 | 221 | 0.0 | 0.0 | 0.00 | 0.00 | 0.03 | 88 | 1018.1 |
| 20260831203839 | 22 | 227 | 0.0 | 0.0 | 0.00 | 0.00 | 0.03 | 88 | 1018.2 |
| 20260831203338 | 22 | 228 | 0.0 | 0.0 | 0.00 | 0.00 | 0.03 | 88 | 1018.3 |
| 20260831202323 | 22 | 231 | 0.0 | 0.0 | 0.00 | 0.00 | 0.03 | 90 | 1018.4 |
| 20260831201838 | 22 | 232 | 0.0 | 0.0 | 0.00 | 0.00 | 0.03 | 89 | 1018.5 |
| 20260831201337 | 22 | 234 | 0.0 | 0.0 | 0.00 | 0.00 | 0.03 | 90 | 1018.6 |
| 20260831200840 | 21 | 233 | 0.0 | 0.0 | 0.00 | 0.00 | 0.03 | 91 | 1018.5 |
| 20260831200329 | 21 | 234 | 0.0 | 0.0 | 0.00 | 0.00 | 0.03 | 90 | 1018.6 |
| 20260831195822 | 21 | 233 | 0.0 | 0.0 | 0.00 | 0.00 | 0.03 | 90 | 1018.6 |
| 20260831195331 | 21 | 234 | 0.0 | 0.0 | 0.00 | 0.00 | 0.03 | 90 | 1018.7 |
| 20260831194840 | 22 | 234 | 0.0 | 0.0 | 0.00 | 0.00 | 0.03 | 90 | 1018.8 |
| 20260831194328 | 22 | 233 | 0.0 | 0.0 | 0.00 | 0.00 | 0.03 | 89 | 1018.7 |
| 20260831193817 | 22 | 234 | 0.0 | 0.0 | 0.00 | 0.00 | 0.03 | 88 | 1018.6 |
| 20260831193326 | 22 | 234 | 0.0 | 0.0 | 0.00 | 0.00 | 0.03 | 88 | 1018.7 |
| 20260831192835 | 22 | 234 | 0.0 | 0.0 | 0.00 | 0.00 | 0.00 | 86 | 1018.8 |
| 20260831192316 | 22 | 234 | 0.0 | 0.0 | 0.00 | 0.00 | 0.00 | 85 | 1018.9 |
| 20260831191825 | 22 | 233 | 0.0 | 0.0 | 0.00 | 0.00 | 0.00 | 86 | 1019.1 |
| 20260831191332 | 22 | 234 | 0.0 | 0.0 | 0.00 | 0.00 | 0.00 | 86 | 1019.1 |
| 20260831190837 | 22 | 233 | 0.0 | 0.0 | 0.00 | 0.00 | 0.00 | 87 | 1019.2 |
| 20260831190327 | 21 | 234 | 0.0 | 0.0 | 0.00 | 0.00 | 0.00 | 86 | 1019.2 |
| 20260831185828 | 21 | 200 | 0.0 | 0.0 | 0.00 | 0.00 | 0.00 | 85 | 1019.4 |
| 20260831185316 | 21 | 202 | 0.0 | 0.0 | 0.00 | 0.00 | 0.00 | 85 | 1019.5 |
| 20260831184845 | 21 | 202 | 0.0 | 0.0 | 0.00 | 0.00 | 0.00 | 86 | 1019.5 |
| 20260831184332 | 21 | 202 | 0.0 | 0.0 | 0.00 | 0.00 | 0.00 | 87 | 1019.5 |
| 20260831183824 | 21 | 202 | 0.0 | 0.0 | 0.00 | 0.00 | 0.00 | 89 | 1019.5 |
| 20260831183322 | 21 | 202 | 0.0 | 0.0 | 0.00 | 0.00 | 0.00 | 88 | 1019.5 |
| 20260831182842 | 21 | 202 | 0.0 | 0.0 | 0.00 | 0.00 | 0.00 | 87 | 1019.4 |
| 20260831182322 | 21 | 202 | 0.0 | 0.0 | 0.00 | 0.00 | 0.00 | 87 | 1019.5 |
| 20260831181815 | 21 | 202 | 0.0 | 0.0 | 0.00 | 0.00 | 0.00 | 87 | 1019.5 |
| 20260831181327 | 21 | 202 | 0.0 | 0.0 | 0.00 | 0.00 | 0.00 | 87 | 1019.7 |
| 20260831180826 | 21 | 202 | 0.0 | 0.0 | 0.00 | 0.00 | 0.00 | 86 | 1019.7 |
| 20260831180318 | 21 | 202 | 0.0 | 0.0 | 0.00 | 0.00 | 0.00 | 86 | 1019.6 |
| 20260831175852 | 21 | 202 | 0.0 | 0.0 | 0.00 | 0.00 | 0.00 | 86 | 1019.6 |
| 20260831175336 | 21 | 202 | 0.0 | 0.0 | 0.00 | 0.00 | 0.00 | 85 | 1019.6 |
| 20260831174846 | 21 | 202 | 0.0 | 0.0 | 0.00 | 0.00 | 0.00 | 84 | 1019.6 |
| 20260831174317 | 21 | 202 | 0.0 | 0.0 | 0.00 | 0.00 | 0.00 | 85 | 1019.7 |
| 20260831173829 | 21 | 202 | 0.0 | 0.0 | 0.00 | 0.00 | 0.00 | 83 | 1019.7 |
| 20260831173359 | 21 | 202 | 0.0 | 0.0 | 0.00 | 0.00 | 0.00 | 83 | 1019.7 |
| 20260831172830 | 21 | 202 | 0.0 | 0.0 | 0.00 | 0.00 | 0.00 | 84 | 1019.7 |
| 20260831172317 | 21 | 202 | 0.0 | 0.0 | 0.00 | 0.00 | 0.00 | 81 | 1019.6 |
| 20260831171826 | 21 | 205 | 0.0 | 0.0 | 0.00 | 0.00 | 0.00 | 82 | 1019.6 |
| 20260831171344 | 21 | 205 | 0.0 | 0.0 | 0.00 | 0.00 | 0.00 | 81 | 1019.6 |
| 20260831170831 | 22 | 205 | 0.0 | 0.0 | 0.00 | 0.00 | 0.00 | 84 | 1019.6 |
| 20260831170318 | 21 | 207 | 0.0 | 0.0 | 0.00 | 0.00 | 0.00 | 82 | 1019.7 |
| 20260831165834 | 21 | 207 | 0.0 | 0.0 | 0.00 | 0.00 | 0.00 | 84 | 1019.5 |
| 20260831165321 | 21 | 207 | 0.0 | 0.0 | 0.00 | 0.00 | 0.00 | 84 | 1019.5 |
| 20260831164836 | 21 | 207 | 0.0 | 0.0 | 0.00 | 0.00 | 0.00 | 84 | 1019.6 |
| 20260831164315 | 22 | 206 | 0.0 | 0.0 | 0.00 | 0.00 | 0.00 | 81 | 1019.7 |
| 20260831163828 | 22 | 207 | 0.0 | 0.0 | 0.00 | 0.00 | 0.00 | 82 | 1019.8 |
| 20260831163338 | 22 | 207 | 0.0 | 0.0 | 0.00 | 0.00 | 0.00 | 82 | 1019.7 |
| 20260831162821 | 22 | 207 | 0.0 | 0.0 | 0.00 | 0.00 | 0.00 | 82 | 1019.7 |
| 20260831162339 | 22 | 206 | 0.0 | 0.0 | 0.00 | 0.00 | 0.00 | 82 | 1019.7 |
| 20260831161829 | 22 | 206 | 0.0 | 0.0 | 0.00 | 0.00 | 0.00 | 81 | 1019.7 |
| 20260831161341 | 22 | 225 | 0.0 | 0.0 | 0.00 | 0.00 | 0.00 | 81 | 1019.7 |
| 20260831160850 | 22 | 225 | 0.0 | 0.0 | 0.00 | 0.00 | 0.00 | 81 | 1019.8 |
| 20260831160337 | 22 | 241 | 0.0 | 0.0 | 0.00 | 0.00 | 0.00 | 80 | 1019.9 |
| 20260831155817 | 22 | 242 | 0.0 | 0.0 | 0.00 | 0.00 | 0.00 | 83 | 1019.7 |
| 20260831155329 | 22 | 246 | 0.0 | 0.0 | 0.00 | 0.00 | 0.00 | 83 | 1019.8 |
| 20260831154838 | 22 | 246 | 0.0 | 0.0 | 0.00 | 0.00 | 0.00 | 82 | 1019.9 |
| 20260831154326 | 22 | 249 | 0.0 | 0.0 | 0.00 | 0.00 | 0.00 | 81 | 1020.0 |
| 20260831153819 | 22 | 222 | 0.0 | 0.0 | 0.00 | 0.00 | 0.00 | 81 | 1019.9 |
| 20260831153347 | 22 | 210 | 0.0 | 0.0 | 0.00 | 0.00 | 0.00 | 83 | 1020.1 |
| 20260831152819 | 21 | 209 | 0.0 | 0.0 | 0.00 | 0.00 | 0.00 | 83 | 1020.0 |
| 20260831152318 | 21 | 234 | 0.0 | 0.0 | 0.00 | 0.00 | 0.00 | 82 | 1020.1 |
| 20260831151827 | 21 | 242 | 0.0 | 0.0 | 0.00 | 0.00 | 0.00 | 83 | 1020.2 |
| 20260831151338 | 21 | 243 | 0.0 | 0.0 | 0.00 | 0.00 | 0.00 | 83 | 1020.1 |
| 20260831150825 | 21 | 299 | 0.0 | 0.0 | 0.00 | 0.00 | 0.00 | 85 | 1020.1 |
| 20260831150332 | 21 | 298 | 0.0 | 0.0 | 0.00 | 0.00 | 0.00 | 83 | 1020.1 |
| 20260831145822 | 21 | 298 | 0.0 | 0.0 | 0.00 | 0.00 | 0.00 | 82 | 1020.1 |
| 20260831145331 | 21 | 307 | 0.0 | 0.0 | 0.00 | 0.00 | 0.00 | 84 | 1020.0 |
| 20260831144823 | 21 | 10 | 0.0 | 0.0 | 0.00 | 0.00 | 0.00 | 84 | 1019.8 |
| 20260831144322 | 21 | 10 | 0.0 | 0.0 | 0.00 | 0.00 | 0.00 | 84 | 1019.8 |
| 20260831143833 | 21 | 10 | 0.0 | 0.0 | 0.00 | 0.00 | 0.00 | 84 | 1019.9 |
| 20260831143322 | 21 | 10 | 0.0 | 0.0 | 0.00 | 0.00 | 0.00 | 84 | 1020.1 |
| 20260831142834 | 21 | 10 | 0.0 | 0.0 | 0.00 | 0.00 | 0.00 | 84 | 1020.2 |
| 20260831142319 | 21 | 10 | 0.0 | 0.0 | 0.00 | 0.00 | 0.00 | 82 | 1020.3 |
| 20260831141850 | 21 | 10 | 0.0 | 0.0 | 0.00 | 0.00 | 0.00 | 83 | 1020.1 |
| 20260831141317 | 21 | 10 | 0.0 | 0.0 | 0.00 | 0.00 | 0.00 | 81 | 1020.1 |
| 20260831140828 | 21 | 10 | 0.0 | 0.0 | 0.00 | 0.00 | 0.00 | 80 | 1020.0 |
| 20260831140337 | 21 | 10 | 0.0 | 0.0 | 0.00 | 0.00 | 0.00 | 81 | 1020.0 |
| 20260831135847 | 21 | 10 | 0.0 | 0.0 | 0.00 | 0.00 | 0.00 | 82 | 1019.9 |
| 20260831135323 | 21 | 10 | 0.0 | 0.0 | 0.00 | 0.00 | 0.00 | 84 | 1020.0 |
| 20260831134817 | 21 | 10 | 0.0 | 0.0 | 0.00 | 0.00 | 0.00 | 83 | 1020.0 |
| 20260831134325 | 20 | 10 | 0.0 | 0.0 | 0.00 | 0.00 | 0.00 | 84 | 1020.1 |
| 20260831133817 | 20 | 10 | 0.0 | 0.0 | 0.00 | 0.00 | 0.00 | 85 | 1020.1 |
| 20260831133326 | 20 | 10 | 0.0 | 0.0 | 0.00 | 0.00 | 0.00 | 85 | 1020.1 |
| 20260831132817 | 20 | 10 | 0.0 | 0.0 | 0.00 | 0.00 | 0.00 | 87 | 1020.0 |
| 20260831132317 | 20 | 10 | 0.0 | 0.0 | 0.00 | 0.00 | 0.00 | 87 | 1019.8 |
| 20260831131857 | 20 | 10 | 0.0 | 0.0 | 0.00 | 0.00 | 0.00 | 88 | 1019.9 |
| 20260831131325 | 20 | 10 | 0.0 | 0.0 | 0.00 | 0.00 | 0.00 | 90 | 1019.9 |
| 20260831130834 | 20 | 10 | 0.0 | 0.0 | 0.00 | 0.00 | 0.00 | 90 | 1019.8 |
| 20260831130342 | 20 | 10 | 0.0 | 0.0 | 0.00 | 0.00 | 0.00 | 90 | 1019.9 |
| 20260831125827 | 20 | 10 | 0.0 | 0.0 | 0.00 | 0.00 | 0.00 | 91 | 1019.8 |
| 20260831125321 | 19 | 10 | 0.0 | 0.0 | 0.00 | 0.00 | 0.00 | 92 | 1019.9 |
| 20260831124830 | 19 | 10 | 0.0 | 0.0 | 0.00 | 0.00 | 0.00 | 91 | 1020.0 |
| 20260831124331 | 19 | 10 | 0.0 | 0.0 | 0.00 | 0.00 | 0.00 | 92 | 1020.0 |
| 20260831123823 | 19 | 10 | 0.0 | 0.0 | 0.00 | 0.00 | 0.00 | 92 | 1020.0 |
| 20260831123332 | 19 | 10 | 0.0 | 0.0 | 0.00 | 0.00 | 0.00 | 92 | 1020.0 |
| 20260831122814 | 18 | 10 | 0.0 | 0.0 | 0.00 | 0.00 | 0.00 | 92 | 1020.1 |
| 20260831122319 | 18 | 10 | 0.0 | 0.0 | 0.00 | 0.00 | 0.00 | 93 | 1020.0 |
| 20260831121831 | 18 | 10 | 0.0 | 0.0 | 0.00 | 0.00 | 0.00 | 93 | 1020.1 |
| 20260831121342 | 18 | 10 | 0.0 | 0.0 | 0.00 | 0.00 | 0.00 | 93 | 1019.9 |
| 20260831120827 | 18 | 10 | 0.0 | 0.0 | 0.00 | 0.00 | 0.00 | 93 | 1019.8 |
| 20260831120321 | 18 | 10 | 0.0 | 0.0 | 0.00 | 0.00 | 0.00 | 93 | 1019.9 |
| 20260831115831 | 18 | 10 | 0.0 | 0.0 | 0.00 | 0.00 | 0.00 | 93 | 1020.1 |
| 20260831115319 | 18 | 10 | 0.0 | 0.0 | 0.00 | 0.00 | 0.00 | 93 | 1019.9 |
| 20260831114817 | 18 | 10 | 0.0 | 0.0 | 0.00 | 0.00 | 0.00 | 93 | 1019.9 |
| 20260831114328 | 18 | 10 | 0.0 | 0.0 | 0.00 | 0.00 | 0.00 | 93 | 1019.9 |
| 20260831113838 | 18 | 10 | 0.0 | 0.0 | 0.00 | 0.00 | 0.00 | 93 | 1019.8 |
| 20260831113328 | 18 | 10 | 0.0 | 0.0 | 0.00 | 0.00 | 0.00 | 93 | 1019.8 |
| 20260831112822 | 18 | 10 | 0.0 | 0.0 | 0.00 | 0.00 | 0.00 | 93 | 1019.9 |
| 20260831112326 | 18 | 10 | 0.0 | 0.0 | 0.00 | 0.00 | 0.00 | 93 | 1019.8 |
| 20260831111837 | 17 | 10 | 0.0 | 0.0 | 0.00 | 0.00 | 0.00 | 93 | 1019.8 |
| 20260831111353 | 17 | 10 | 0.0 | 0.0 | 0.00 | 0.00 | 0.00 | 93 | 1019.8 |
| 20260831110826 | 17 | 10 | 0.0 | 0.0 | 0.00 | 0.00 | 0.00 | 93 | 1019.8 |
| 20260831110353 | 17 | 10 | 0.0 | 0.0 | 0.00 | 0.00 | 0.00 | 93 | 1019.7 |
| 20260831105821 | 17 | 10 | 0.0 | 0.0 | 0.00 | 0.00 | 0.00 | 93 | 1019.6 |
| 20260831105350 | 17 | 10 | 0.0 | 0.0 | 0.00 | 0.00 | 0.00 | 93 | 1019.4 |
| 20260831104844 | 17 | 10 | 0.0 | 0.0 | 0.00 | 0.00 | 0.00 | 94 | 1019.2 |
| 20260831104336 | 17 | 10 | 0.0 | 0.0 | 0.00 | 0.00 | 0.00 | 94 | 1019.4 |
| 20260831103844 | 17 | 10 | 0.0 | 0.0 | 0.00 | 0.00 | 0.00 | 93 | 1019.3 |
| 20260831103324 | 17 | 10 | 0.0 | 0.0 | 0.00 | 0.00 | 0.00 | 93 | 1019.3 |
| 20260831102836 | 17 | 10 | 0.0 | 0.0 | 0.00 | 0.00 | 0.00 | 93 | 1019.2 |
| 20260831102346 | 17 | 10 | 0.0 | 0.0 | 0.00 | 0.00 | 0.00 | 93 | 1019.1 |
| 20260831101825 | 17 | 10 | 0.0 | 0.0 | 0.00 | 0.00 | 0.00 | 93 | 1019.0 |
| 20260831101316 | 17 | 10 | 0.0 | 0.0 | 0.00 | 0.00 | 0.00 | 93 | 1018.9 |
| 20260831100829 | 17 | 10 | 0.0 | 0.0 | 0.00 | 0.00 | 0.00 | 93 | 1019.0 |
| 20260831100340 | 17 | 10 | 0.0 | 0.0 | 0.00 | 0.00 | 0.00 | 93 | 1019.1 |
| 20260831095821 | 17 | 10 | 0.0 | 0.0 | 0.00 | 0.00 | 0.00 | 93 | 1019.1 |
| 20260831095357 | 17 | 10 | 0.0 | 0.0 | 0.00 | 0.00 | 0.00 | 93 | 1019.0 |
| 20260831094824 | 17 | 14 | 0.0 | 0.0 | 0.00 | 0.00 | 0.00 | 93 | 1019.0 |
| 20260831094352 | 17 | 14 | 0.0 | 0.0 | 0.00 | 0.00 | 0.00 | 93 | 1019.2 |
| 20260831093823 | 17 | 14 | 0.0 | 0.0 | 0.00 | 0.00 | 0.00 | 93 | 1019.0 |
| 20260831093322 | 17 | 14 | 0.0 | 0.0 | 0.00 | 0.00 | 0.00 | 93 | 1019.1 |
| 20260831092834 | 17 | 14 | 0.0 | 0.0 | 0.00 | 0.00 | 0.00 | 93 | 1019.1 |
| 20260831092327 | 17 | 14 | 0.0 | 0.0 | 0.00 | 0.00 | 0.00 | 93 | 1019.0 |
| 20260831091841 | 18 | 14 | 0.0 | 0.0 | 0.00 | 0.00 | 0.00 | 93 | 1019.0 |
| 20260831091332 | 17 | 14 | 0.0 | 0.0 | 0.00 | 0.00 | 0.00 | 93 | 1019.0 |
| 20260831090833 | 17 | 14 | 0.0 | 0.0 | 0.00 | 0.00 | 0.00 | 93 | 1019.0 |
| 20260831090326 | 17 | 14 | 0.0 | 0.0 | 0.00 | 0.00 | 0.00 | 93 | 1019.0 |
| 20260831085857 | 17 | 14 | 0.0 | 0.0 | 0.00 | 0.00 | 0.00 | 93 | 1019.0 |
| 20260831085325 | 17 | 14 | 0.0 | 0.0 | 0.00 | 0.00 | 0.00 | 93 | 1018.9 |
| 20260831084836 | 18 | 14 | 0.0 | 0.0 | 0.00 | 0.00 | 0.00 | 93 | 1018.8 |
| 20260831084345 | 18 | 14 | 0.0 | 0.0 | 0.00 | 0.00 | 0.00 | 93 | 1018.7 |
| 20260831083828 | 18 | 14 | 0.0 | 0.0 | 0.00 | 0.00 | 0.00 | 93 | 1018.7 |
| 20260831083336 | 18 | 14 | 0.0 | 0.0 | 0.00 | 0.00 | 0.00 | 93 | 1018.8 |
| 20260831082824 | 18 | 14 | 0.0 | 0.0 | 0.00 | 0.00 | 0.00 | 93 | 1018.9 |
| 20260831082353 | 18 | 14 | 0.0 | 0.0 | 0.00 | 0.00 | 0.00 | 93 | 1018.9 |
| 20260831081841 | 18 | 14 | 0.0 | 0.0 | 0.00 | 0.00 | 0.00 | 93 | 1018.9 |
| 20260831081322 | 18 | 14 | 0.0 | 0.0 | 0.00 | 0.00 | 0.00 | 93 | 1018.8 |
| 20260831080831 | 18 | 14 | 0.0 | 0.0 | 0.00 | 0.00 | 0.00 | 93 | 1018.9 |
| 20260831080327 | 18 | 14 | 0.0 | 0.0 | 0.00 | 0.00 | 0.00 | 93 | 1018.9 |
| 20260831075835 | 18 | 14 | 0.0 | 0.0 | 0.00 | 0.00 | 0.00 | 93 | 1018.8 |
| 20260831075345 | 18 | 14 | 0.0 | 0.0 | 0.00 | 0.00 | 0.00 | 93 | 1018.8 |
| 20260831074823 | 18 | 14 | 0.0 | 0.0 | 0.00 | 0.00 | 0.00 | 93 | 1018.9 |
| 20260831074318 | 18 | 14 | 0.0 | 0.0 | 0.00 | 0.00 | 0.00 | 93 | 1018.9 |
| 20260831073817 | 18 | 14 | 0.0 | 0.0 | 0.00 | 0.00 | 0.00 | 93 | 1018.9 |
| 20260831073358 | 18 | 14 | 0.0 | 0.0 | 0.00 | 0.00 | 0.00 | 93 | 1018.9 |
| 20260831072822 | 18 | 14 | 0.0 | 0.0 | 0.00 | 0.00 | 0.00 | 93 | 1018.9 |
| 20260831072323 | 18 | 14 | 0.0 | 0.0 | 0.00 | 0.00 | 0.00 | 93 | 1018.9 |
| 20260831071835 | 18 | 14 | 0.0 | 0.0 | 0.00 | 0.00 | 0.00 | 93 | 1018.9 |
| 20260831071405 | 18 | 14 | 0.0 | 0.0 | 0.00 | 0.00 | 0.00 | 93 | 1018.9 |
| 20260831070853 | 18 | 14 | 0.0 | 0.0 | 0.00 | 0.00 | 0.00 | 93 | 1018.9 |
| 20260831070331 | 18 | 14 | 0.0 | 0.0 | 0.00 | 0.00 | 0.00 | 93 | 1019.0 |
| 20260831065825 | 18 | 14 | 0.0 | 0.0 | 0.00 | 0.00 | 0.00 | 93 | 1019.0 |
| 20260831065333 | 18 | 14 | 0.0 | 0.0 | 0.00 | 0.00 | 0.00 | 93 | 1018.9 |
| 20260831064846 | 18 | 14 | 0.0 | 0.0 | 0.00 | 0.00 | 0.00 | 93 | 1019.0 |
| 20260831064325 | 18 | 14 | 0.0 | 0.0 | 0.00 | 0.00 | 0.00 | 93 | 1019.1 |
| 20260831063831 | 18 | 14 | 0.0 | 0.0 | 0.00 | 0.00 | 0.00 | 93 | 1019.2 |
| 20260831063324 | 18 | 14 | 0.0 | 0.0 | 0.00 | 0.00 | 0.00 | 93 | 1019.2 |
| 20260831062823 | 18 | 14 | 0.0 | 0.0 | 0.00 | 0.00 | 0.00 | 93 | 1019.3 |
| 20260831062404 | 18 | 14 | 0.0 | 0.0 | 0.00 | 0.00 | 0.00 | 93 | 1019.3 |
| 20260831061826 | 18 | 14 | 0.0 | 0.0 | 0.00 | 0.00 | 0.00 | 93 | 1019.3 |
| 20260831061318 | 18 | 14 | 0.0 | 0.0 | 0.00 | 0.00 | 0.00 | 92 | 1019.2 |
| 20260831060825 | 18 | 14 | 0.0 | 0.0 | 0.00 | 0.00 | 0.00 | 93 | 1019.1 |
| 20260831060343 | 18 | 14 | 0.0 | 0.0 | 0.00 | 0.00 | 0.00 | 93 | 1019.1 |
| 20260831055827 | 18 | 14 | 0.0 | 0.0 | 0.00 | 0.00 | 0.00 | 93 | 1019.1 |
| 20260831055336 | 18 | 14 | 0.0 | 0.0 | 0.00 | 0.00 | 0.00 | 93 | 1019.2 |
| 20260831054828 | 18 | 14 | 0.0 | 0.0 | 0.00 | 0.00 | 0.00 | 93 | 1019.1 |
| 20260831054339 | 18 | 14 | 0.0 | 0.0 | 0.00 | 0.00 | 0.00 | 93 | 1019.1 |
| 20260831053839 | 18 | 14 | 0.0 | 0.0 | 0.00 | 0.00 | 0.00 | 93 | 1019.1 |
| 20260831053327 | 18 | 14 | 0.0 | 0.0 | 0.00 | 0.00 | 0.00 | 93 | 1019.3 |
| 20260831052817 | 18 | 14 | 0.0 | 0.0 | 0.00 | 0.00 | 0.00 | 93 | 1019.3 |
| 20260831052328 | 18 | 14 | 0.0 | 0.0 | 0.00 | 0.00 | 0.00 | 93 | 1019.3 |
| 20260831051838 | 18 | 14 | 0.0 | 0.0 | 0.00 | 0.00 | 0.00 | 93 | 1019.4 |
| 20260831051321 | 18 | 14 | 0.0 | 0.0 | 0.00 | 0.00 | 0.00 | 93 | 1019.3 |
| 20260831050829 | 18 | 14 | 0.0 | 0.0 | 0.00 | 0.00 | 0.00 | 92 | 1019.2 |
| 20260831050340 | 18 | 14 | 0.0 | 0.0 | 0.00 | 0.00 | 0.00 | 92 | 1019.3 |
| 20260831045854 | 18 | 14 | 0.0 | 0.0 | 0.00 | 0.00 | 0.00 | 92 | 1019.3 |
| 20260831045332 | 19 | 14 | 0.0 | 0.0 | 0.00 | 0.00 | 0.00 | 92 | 1019.3 |
| 20260831044822 | 19 | 14 | 0.0 | 0.0 | 0.00 | 0.00 | 0.00 | 92 | 1019.3 |
| 20260831044404 | 19 | 14 | 0.0 | 0.0 | 0.00 | 0.00 | 0.00 | 92 | 1019.2 |
| 20260831043846 | 19 | 14 | 0.0 | 0.0 | 0.00 | 0.00 | 0.00 | 92 | 1019.3 |
| 20260831043319 | 19 | 14 | 0.0 | 0.0 | 0.00 | 0.00 | 0.00 | 92 | 1019.2 |
| 20260831042846 | 19 | 14 | 0.0 | 0.0 | 0.00 | 0.00 | 0.00 | 92 | 1019.3 |
| 20260831042320 | 19 | 14 | 0.0 | 0.0 | 0.00 | 0.00 | 0.00 | 92 | 1019.3 |
| 20260831041850 | 19 | 14 | 0.0 | 0.0 | 0.00 | 0.00 | 0.00 | 92 | 1019.3 |
| 20260831041339 | 20 | 14 | 0.0 | 0.0 | 0.00 | 0.00 | 0.00 | 91 | 1019.1 |
| 20260831040829 | 19 | 14 | 0.0 | 0.0 | 0.00 | 0.00 | 0.00 | 91 | 1019.2 |
| 20260831040401 | 19 | 14 | 0.0 | 0.0 | 0.00 | 0.00 | 0.00 | 92 | 1019.3 |
| 20260831035820 | 19 | 14 | 0.0 | 0.0 | 0.00 | 0.00 | 0.00 | 92 | 1019.3 |
| 20260831035357 | 19 | 14 | 0.0 | 0.0 | 0.00 | 0.00 | 0.00 | 92 | 1019.4 |
| 20260831034836 | 19 | 14 | 0.0 | 0.0 | 0.00 | 0.00 | 0.00 | 92 | 1019.3 |
| 20260831034328 | 19 | 14 | 0.0 | 0.0 | 0.00 | 0.00 | 0.00 | 92 | 1019.4 |
| 20260831033838 | 20 | 14 | 0.0 | 0.0 | 0.00 | 0.00 | 0.00 | 92 | 1019.4 |
| 20260831033323 | 20 | 14 | 0.0 | 0.0 | 0.00 | 0.00 | 0.00 | 92 | 1019.2 |
| 20260831032817 | 20 | 14 | 0.0 | 0.0 | 0.00 | 0.00 | 0.00 | 92 | 1019.2 |
| 20260831032349 | 20 | 14 | 0.0 | 0.0 | 0.00 | 0.00 | 0.00 | 92 | 1019.2 |
| 20260831031838 | 20 | 14 | 0.0 | 0.0 | 0.00 | 0.00 | 0.00 | 92 | 1019.4 |
| 20260831031331 | 20 | 14 | 0.0 | 0.0 | 0.00 | 0.00 | 0.00 | 92 | 1019.4 |
| 20260831030839 | 20 | 14 | 0.0 | 0.0 | 0.00 | 0.00 | 0.00 | 91 | 1019.5 |
| 20260831030317 | 20 | 14 | 0.0 | 0.0 | 0.00 | 0.00 | 0.00 | 91 | 1019.6 |
| 20260831025828 | 20 | 14 | 0.0 | 0.0 | 0.00 | 0.00 | 0.00 | 91 | 1019.6 |
| 20260831025322 | 20 | 14 | 0.0 | 0.0 | 0.00 | 0.00 | 0.00 | 91 | 1019.5 |
| 20260831024836 | 20 | 14 | 0.0 | 0.0 | 0.00 | 0.00 | 0.00 | 92 | 1019.5 |
| 20260831024325 | 20 | 14 | 0.0 | 0.0 | 0.00 | 0.00 | 0.00 | 92 | 1019.6 |
| 20260831023842 | 20 | 14 | 0.0 | 0.0 | 0.00 | 0.00 | 0.00 | 92 | 1019.5 |
| 20260831023324 | 20 | 14 | 0.0 | 0.0 | 0.00 | 0.00 | 0.00 | 92 | 1019.3 |
| 20260831022835 | 20 | 14 | 0.0 | 0.0 | 0.00 | 0.00 | 0.00 | 92 | 1019.5 |
| 20260831022345 | 20 | 14 | 0.0 | 0.0 | 0.00 | 0.00 | 0.00 | 91 | 1019.6 |
| 20260831021855 | 20 | 14 | 0.0 | 0.0 | 0.00 | 0.00 | 0.00 | 91 | 1019.7 |
| 20260831021344 | 20 | 14 | 0.0 | 0.0 | 0.00 | 0.00 | 0.00 | 91 | 1019.6 |
| 20260831020818 | 20 | 14 | 0.0 | 0.0 | 0.00 | 0.00 | 0.00 | 91 | 1019.6 |
| 20260831020331 | 20 | 14 | 0.0 | 0.0 | 0.00 | 0.00 | 0.00 | 91 | 1019.6 |
| 20260831015835 | 20 | 14 | 0.0 | 0.0 | 0.00 | 0.00 | 0.00 | 91 | 1019.6 |
| 20260831015317 | 20 | 14 | 0.0 | 0.0 | 0.00 | 0.00 | 0.00 | 91 | 1019.6 |
| 20260831014829 | 20 | 185 | 0.0 | 0.0 | 0.00 | 0.00 | 0.00 | 92 | 1019.6 |
| 20260831014326 | 20 | 185 | 0.0 | 0.0 | 0.00 | 0.00 | 0.00 | 91 | 1019.7 |
| 20260831013829 | 20 | 185 | 0.0 | 0.0 | 0.00 | 0.00 | 0.00 | 91 | 1019.7 |
| 20260831013337 | 20 | 186 | 0.0 | 0.0 | 0.00 | 0.00 | 0.00 | 91 | 1019.6 |
| 20260831012825 | 20 | 184 | 0.0 | 0.0 | 0.00 | 0.00 | 0.00 | 91 | 1019.5 |
| 20260831012333 | 20 | 185 | 0.0 | 0.0 | 0.00 | 0.00 | 0.00 | 91 | 1019.5 |
| 20260831011828 | 20 | 186 | 0.0 | 0.0 | 0.00 | 0.00 | 0.00 | 91 | 1019.5 |
| 20260831011346 | 20 | 186 | 0.0 | 0.0 | 0.00 | 0.00 | 0.00 | 91 | 1019.5 |
| 20260831010823 | 20 | 185 | 0.0 | 0.0 | 0.00 | 0.00 | 0.00 | 91 | 1019.4 |
| 20260831010334 | 20 | 185 | 0.0 | 0.0 | 0.00 | 0.00 | 0.00 | 91 | 1019.3 |
| 20260831005822 | 20 | 184 | 0.0 | 0.0 | 0.00 | 0.00 | 0.00 | 91 | 1019.2 |
| 20260831005331 | 20 | 184 | 0.0 | 0.0 | 0.00 | 0.00 | 0.00 | 91 | 1019.1 |
| 20260831004833 | 21 | 185 | 0.0 | 0.0 | 0.00 | 0.00 | 0.00 | 90 | 1018.9 |
| 20260831004321 | 21 | 184 | 0.0 | 0.0 | 0.00 | 0.00 | 0.00 | 90 | 1018.9 |
| 20260831003832 | 21 | 184 | 0.0 | 0.0 | 0.00 | 0.00 | 0.00 | 90 | 1018.9 |
| 20260831003317 | 21 | 184 | 0.0 | 0.0 | 0.00 | 0.00 | 0.00 | 90 | 1018.9 |
| 20260831002831 | 21 | 185 | 0.0 | 0.0 | 0.00 | 0.00 | 0.00 | 91 | 1019.0 |
| 20260831002319 | 21 | 186 | 0.0 | 0.0 | 0.00 | 0.00 | 0.00 | 90 | 1018.9 |
| 20260831001822 | 21 | 186 | 0.0 | 0.0 | 0.00 | 0.00 | 0.00 | 90 | 1018.8 |
| 20260831001327 | 21 | 186 | 0.0 | 0.0 | 0.00 | 0.00 | 0.00 | 90 | 1018.8 |
| 20260831000838 | 21 | 186 | 0.0 | 0.0 | 0.00 | 0.00 | 0.00 | 90 | 1018.8 |
| 20260831000351 | 21 | 186 | 0.0 | 0.0 | 0.00 | 0.00 | 0.00 | 90 | 1018.7 |
| 20260830235841 | 21 | 186 | 0.0 | 0.0 | 0.00 | 0.00 | 0.00 | 89 | 1018.5 |
| 20260830235329 | 21 | 186 | 0.0 | 0.0 | 0.00 | 0.00 | 0.00 | 89 | 1018.4 |
| 20260830234907 | 21 | 186 | 0.0 | 0.0 | 0.00 | 0.00 | 0.00 | 89 | 1018.3 |